Inquirer Daily News

Weather

Get conditions and forecasts for any City, State, ZIP code or Country:  
Northeast Philadelphia, PA
on Wednesday, February 13, 2013

Wednesday
Previous Day Next Day
Daily Summary
 ActualAverage (KTTN)Record (KTTN)
Temperature
Mean Temperature °F 34°F  
Max Temperature 43°F 42°F 65°F (1880)
Min Temperature 27°F 26°F -1°F (1914)
Degree Days
Heating Degree Days 30 31  
Month to date heating degree days 421  
Since 1 July heating degree days 3367  
Cooling Degree Days 0 0  
Month to date cooling degree days 0  
Year to date cooling degree days 0  
Moisture
Dew Point 27°F   
Average Humidity 76    
Maximum Humidity 93    
Minimum Humidity 49    
Precipitation
Precipitation 0.12 in 0.08 in 2.45 in (1966)
Month to date precipitation 0.99  
Year to date precipitation 4.15  
Wind
Wind Speed 4 mph   
Max Wind Speed 8 mph   
Max Gust Speed mph   
Visibility 7 miles   
Events Rain , Snow   

Key: T is trace of precipitation, MM is missing value
Source: NWS Daily Summary
Time(EST)TemperatureDew PointHumidity Pressure Visibility Wind DirectionWind SpeedGust SpeedPrecipitationEvents Conditions
12:54 AM 30.9°F 23.0°F 72% 29.98 in 10.0 miles Calm Calm - N/A   Clear
1:54 AM 30.0°F 24.1°F 79% 29.99 in 10.0 miles NW 3.5 mph - N/A   Clear
2:54 AM 28.9°F 24.1°F 82% 29.97 in 10.0 miles NNW 3.5 mph - N/A   Clear
3:54 AM 27.0°F 21.9°F 81% 29.94 in 10.0 miles Calm Calm - N/A   Clear
4:54 AM 27.0°F 21.9°F 81% 29.95 in 10.0 miles Calm Calm - N/A   Clear
5:54 AM 27.0°F 21.9°F 81% 29.93 in 10.0 miles Calm Calm - N/A   Clear
6:54 AM 27.0°F 23.0°F 85% 29.94 in 10.0 miles Calm Calm - N/A   Clear
7:54 AM 28.0°F 24.1°F 85% 29.93 in 8.0 miles Calm Calm - N/A   Clear
8:54 AM 34.0°F 25.0°F 70% 29.91 in 10.0 miles NE 4.6 mph - N/A   Clear
9:54 AM 37.0°F 24.1°F 59% 29.92 in 10.0 miles East 4.6 mph - N/A   Clear
10:54 AM 39.0°F 25.0°F 57% 29.90 in 10.0 miles East 4.6 mph - N/A   Clear
11:54 AM 39.9°F 25.0°F 55% 29.88 in 10.0 miles ENE 5.8 mph - N/A   Clear
12:54 PM 41.0°F 25.0°F 53% 29.83 in 10.0 miles East 6.9 mph - N/A   Clear
1:54 PM 43.0°F 26.1°F 51% 29.79 in 10.0 miles ESE 5.8 mph - N/A   Clear
2:54 PM 43.0°F 25.0°F 49% 29.77 in 10.0 miles ESE 6.9 mph - N/A   Clear
3:54 PM 43.0°F 27.0°F 53% 29.73 in 10.0 miles East 8.1 mph - N/A   Mostly Cloudy
4:54 PM 42.1°F 27.0°F 55% 29.70 in 10.0 miles ENE 8.1 mph - N/A   Overcast
5:54 PM 41.0°F 28.9°F 62% 29.70 in 10.0 miles NE 6.9 mph - 0.00 in   Overcast
6:54 PM 39.9°F 28.0°F 63% 29.71 in 10.0 miles ENE 4.6 mph - 0.00 in Rain Light Rain
7:35 PM 35.6°F 32.0°F 87% 29.73 in 5.0 miles NNE 8.1 mph - 0.01 in Rain Light Rain
7:54 PM 35.1°F 30.9°F 85% 29.73 in 4.0 miles North 8.1 mph - 0.02 in Snow Light Snow
8:41 PM 33.8°F 30.2°F 87% 29.72 in 2.0 miles NNE 8.1 mph - 0.03 in Snow Light Snow
8:54 PM 34.0°F 30.9°F 89% 29.73 in 2.5 miles NNE 5.8 mph - 0.03 in Snow Light Snow
9:09 PM 33.8°F 30.2°F 87% 29.72 in 2.5 miles NNE 6.9 mph - 0.01 in Snow Light Snow
9:31 PM 33.8°F 30.2°F 87% 29.72 in 2.0 miles NNE 6.9 mph - 0.02 in Snow Light Snow
9:42 PM 33.8°F 30.2°F 87% 29.72 in 1.8 miles North 5.8 mph - 0.02 in Snow Light Snow
9:54 PM 33.1°F 30.9°F 92% 29.72 in 1.5 miles North 6.9 mph - 0.03 in Snow Light Snow
10:09 PM 33.8°F 32.0°F 93% 29.71 in 2.0 miles North 5.8 mph - 0.00 in Snow Light Snow
10:18 PM 33.8°F 30.2°F 87% 29.71 in 2.5 miles North 6.9 mph - 0.00 in Snow Light Snow
10:54 PM 33.1°F 30.9°F 92% 29.72 in 1.8 miles North 6.9 mph - 0.02 in Snow Light Snow
11:06 PM 33.8°F 30.2°F 87% 29.72 in 2.0 miles North 6.9 mph - 0.00 in Snow Light Snow
11:17 PM 33.8°F 30.2°F 87% 29.73 in 4.0 miles North 6.9 mph - 0.01 in Snow Light Snow
11:54 PM 33.1°F 30.9°F 92% 29.74 in 3.0 miles NNW 5.8 mph - 0.02 in Snow Light Snow
Astronomy
Sunrise:06:55 AM (EST) Moon Rise:08:23 AM (EST)2/13
Sunset:05:33 PM (EST) Moon Set:09:34 PM (EST)2/13
Moon Phase
Feb. 13 Feb. 17 Feb. 25 Mar. 04 Mar. 11

Copyright © 2014 The Weather Underground, Inc.